Weather History for Herat, Afghanistan

Change the Weather History Date:

Saturday, January 18, 2014

  Actual Average Record
Temperature  
Mean Temperature 44 °F -  
Max Temperature 57 °F 51 °F - ()
Min Temperature 30 °F 29 °F - ()
Degree Days  
Heating Degree Days 22    
Moisture  
Dew Point 30 °F    
Average Humidity 64    
Maximum Humidity 87    
Minimum Humidity 29    
Precipitation  
Precipitation 0.00 in 0.06 in - ()
Sea Level Pressure  
Sea Level Pressure 30.18 in    
Wind  
Wind Speed 2 mph ()    
Max Wind Speed 6 mph    
Max Gust Speed -    
Visibility 5.7 miles    
Events Thunderstorm    
T = Trace of Precipitation, MM = Missing Value Source: Averaged Metar Reports

Daily Weather History Graph

Daily Weather History Graph

Search for Another Location

Airport:

Trip Planner

Search our weather history database for the weather conditions in past years. The results will help you decide how hot, cold, wet, or windy it might be!

Date:

Astronomy

Jan. 18, 2014 Rise Set
Actual Time 7:26 AM AFT 5:37 PM AFT
Civil Twilight 6:58 AM AFT 6:04 PM AFT
Nautical Twilight 6:28 AM AFT 6:34 PM AFT
Astronomical Twilight 5:58 AM AFT 7:04 PM AFT
Moon 7:47 PM AFT (1/18) 8:19 AM AFT (1/18)
Length of Visible Light 11h 05m
Length of Day
10h 11m
Waning Gibbous, 96% of the Moon is Illuminated
Jan 18
Waning Gibbous
Jan 24
Last Quarter
Jan 31
New
Feb 6
First Quarter
Feb 15
Full

Hourly Weather History & Observations

Time (AFT) Temp. Windchill Dew Point Humidity Pressure Visibility Wind Dir Wind Speed Gust Speed Precip Events Conditions
12:25 AM 32.0 °F - 28.4 °F 87% 30.21 in 5.0 mi NNE 1.2 mph - N/A   Clear
1:24 AM 33.8 °F 29.6 °F 28.4 °F 81% 30.18 in - South 4.6 mph - N/A   Clear
2:24 AM 35.6 °F - 30.2 °F 81% 30.18 in 6.2 mi South 2.3 mph - N/A Thunderstorm Clear
3:25 AM 33.8 °F - 28.4 °F 81% 30.18 in 6.2 mi WSW 2.3 mph - N/A Thunderstorm Clear
4:25 AM 30.2 °F 25.4 °F 26.6 °F 86% 30.18 in 5.6 mi SE 4.6 mph - N/A   Clear
5:24 AM 33.8 °F - 28.4 °F 81% 30.18 in 6.2 mi West 2.3 mph - N/A Thunderstorm Clear
6:25 AM 32.0 °F - 28.4 °F 87% 30.18 in 5.0 mi WSW 1.2 mph - N/A   Unknown
7:25 AM 33.8 °F 30.8 °F 28.4 °F 81% 30.18 in 5.0 mi SW 3.5 mph - N/A   Unknown
8:25 AM 33.8 °F 29.6 °F 28.4 °F 81% 30.21 in 5.6 mi South 4.6 mph - N/A   Unknown
9:25 AM 39.2 °F 37.0 °F 30.2 °F 70% 30.24 in 5.6 mi North 3.5 mph - N/A   Unknown
10:25 AM 44.6 °F - 32.0 °F 61% 30.24 in 5.6 mi NNE 2.3 mph - N/A   Unknown
11:24 AM 50.0 °F - 33.8 °F 54% 30.24 in - Variable 2.3 mph - N/A   Clear
1:25 PM 57.2 °F - 26.6 °F 31% 30.15 in - Variable 2.3 mph - N/A   Clear
2:25 PM 57.2 °F - 24.8 °F 29% 30.12 in - West 2.3 mph - N/A   Clear
3:25 PM 57.2 °F - 26.6 °F 31% 30.12 in - Variable 3.5 mph - N/A   Clear
4:25 PM 55.4 °F - 30.2 °F 38% 30.15 in 6.2 mi Variable 3.5 mph - N/A   Scattered Clouds
5:25 PM 51.8 °F - 32.0 °F 47% 30.15 in 6.2 mi WNW 1.2 mph - N/A   Mostly Cloudy
6:25 PM 50.0 °F - 33.8 °F 54% 30.18 in 5.6 mi WNW 1.2 mph - N/A   Mostly Cloudy
7:25 PM 48.2 °F - 32.0 °F 54% 30.18 in 5.6 mi WSW 3.5 mph - N/A   Mostly Cloudy
8:25 PM 44.6 °F 42.2 °F 32.0 °F 61% 30.18 in 5.6 mi SSE 4.6 mph - N/A   Mostly Cloudy
9:25 PM 44.6 °F 41.4 °F 32.0 °F 61% 30.18 in 5.6 mi South 5.8 mph - N/A   Mostly Cloudy